Location: Sternwarte_Laufen
(47.9344°N, 12.9346°E)
Time: 07:40:57
(UTC+02:00)

Altair - All Passes

Search period start: 08 June 2026 00:00
Search period end: 18 June 2026 00:00
Orbit: 1501 x 1682 km, 47.2° (Epoch: 6 June)

Date Brightness Start Highest point End Pass type
(mag) Time Alt. Az. Time Alt. Az. Time Alt. Az.
8 Jun - 00:59:22 10° WSW 01:08:46 75° SSE 01:18:36 10° E visible
8 Jun - 03:03:53 10° W 03:13:34 86° S 03:23:37 10° E visible
8 Jun - 05:08:36 10° WNW 05:18:07 59° SSW 05:27:55 10° SE daylight
8 Jun - 07:14:11 10° W 07:21:28 24° SW 07:28:53 10° S daylight
8 Jun - 22:31:43 10° SSW 22:39:49 35° SE 22:48:11 10° ENE visible
9 Jun - 00:34:11 10° WSW 00:43:33 73° SSE 00:53:19 10° ENE visible
9 Jun - 02:38:40 10° W 02:48:18 87° S 02:58:20 10° E visible
9 Jun - 04:43:21 10° WNW 04:52:54 61° SSW 05:02:45 10° SE daylight
9 Jun - 06:48:46 10° W 06:56:21 26° SW 07:04:06 10° S daylight
9 Jun - 22:06:49 10° SSW 22:14:42 33° SE 22:22:49 10° ENE visible
10 Jun - 00:09:01 10° WSW 00:18:19 70° SSE 00:28:02 10° ENE visible
10 Jun - 02:13:26 10° W 02:23:02 87° S 02:33:01 10° E visible
10 Jun - 04:18:07 10° WNW 04:27:41 64° SSW 04:37:33 10° SE visible
10 Jun - 06:23:22 10° W 06:31:14 28° SW 06:39:15 10° S daylight
10 Jun - 21:41:57 10° S 21:49:36 30° SE 21:57:26 10° E visible
10 Jun - 23:43:52 10° WSW 23:53:07 68° SSE 00:02:44 10° ENE visible
11 Jun - 01:48:12 10° W 01:57:46 87° S 02:07:43 10° E visible
11 Jun - 03:52:53 10° WNW 04:02:26 67° SSW 04:12:20 10° SE visible
11 Jun - 05:58:00 10° W 06:06:06 30° SW 06:14:22 10° S daylight
11 Jun - 21:17:07 10° S 21:24:30 28° SE 21:32:03 10° E daylight
11 Jun - 23:18:44 10° SW 23:27:54 65° SSE 23:37:27 10° ENE visible
12 Jun - 01:22:58 10° W 01:32:30 87° S 01:42:25 10° E visible
12 Jun - 03:27:39 10° WNW 03:37:12 69° SSW 03:47:07 10° ESE visible
12 Jun - 05:32:40 10° WNW 05:40:57 32° SW 05:49:27 10° SSE daylight
12 Jun - 20:52:20 10° S 20:59:25 25° SE 21:06:38 10° E daylight
12 Jun - 22:53:37 10° SW 23:02:43 62° SSE 23:12:10 10° ENE visible
13 Jun - 00:57:45 10° W 01:07:14 87° S 01:17:07 10° E visible
13 Jun - 03:02:25 10° WNW 03:11:58 72° SSW 03:21:53 10° ESE visible
13 Jun - 05:07:21 10° WNW 05:15:48 35° SW 05:24:29 10° SSE daylight
13 Jun - 20:27:35 10° S 20:34:20 23° SE 20:41:11 10° E daylight
13 Jun - 22:28:30 10° SW 22:37:31 59° SSE 22:46:53 10° ENE visible
14 Jun - 00:32:32 10° W 00:41:58 86° S 00:51:49 10° E visible
14 Jun - 02:37:12 10° WNW 02:46:44 74° SSW 02:56:38 10° ESE visible
14 Jun - 04:42:03 10° WNW 04:50:39 37° SW 04:59:30 10° SSE daylight
14 Jun - 20:02:54 10° S 20:09:16 21° SE 20:15:43 10° E daylight
14 Jun - 22:03:24 10° SW 22:12:21 56° SSE 22:21:36 10° ENE visible
15 Jun - 00:07:18 10° W 00:16:43 86° S 00:26:31 10° E visible
15 Jun - 02:11:58 10° W 02:21:29 76° SSW 02:31:23 10° ESE visible
15 Jun - 04:16:45 10° WNW 04:25:29 40° SW 04:34:29 10° SSE visible
15 Jun - 06:25:41 10° WSW 06:28:09 11° WSW 06:30:37 10° SW daylight
15 Jun - 19:38:17 10° S 19:44:12 19° SE 19:50:10 10° E daylight
15 Jun - 21:38:19 10° SW 21:47:10 53° SSE 21:56:19 10° ENE visible
15 Jun - 23:42:06 10° WSW 23:51:28 85° S 00:01:13 10° E visible
16 Jun - 01:46:45 10° W 01:56:14 78° SSW 02:06:08 10° ESE visible
16 Jun - 03:51:29 10° WNW 04:00:19 42° SW 04:09:27 10° SSE visible
16 Jun - 05:59:20 10° W 06:03:05 13° WSW 06:06:52 10° SW daylight
16 Jun - 19:13:45 10° SSE 19:19:08 17° SE 19:24:34 10° E daylight
16 Jun - 21:13:16 10° SW 21:22:00 50° SSE 21:31:01 10° ENE daylight
16 Jun - 23:16:53 10° WSW 23:26:13 83° S 23:35:56 10° E visible
17 Jun - 01:21:31 10° W 01:31:00 80° SSW 01:40:52 10° ESE visible
17 Jun - 03:26:13 10° WNW 03:35:09 45° SW 03:44:23 10° SSE visible
17 Jun - 05:33:23 10° W 05:38:01 14° SW 05:42:42 10° SSW daylight
17 Jun - 18:49:20 10° SSE 18:54:06 15° SE 18:58:53 10° E daylight
17 Jun - 20:48:13 10° SW 20:56:51 48° SE 21:05:44 10° ENE daylight
17 Jun - 22:51:41 10° WSW 23:00:59 82° SSE 23:10:39 10° E visible
